Temperature
11 11 11 10 10 10 10 10 10 10 10 10 10 10 9 9 9 9 9 9 9 9 9 9 9 9 9 9 9 9 9 9 9 9 9 8 9 9 9 9 9 9 9
11 10 10 10 10 10 10 10 10 10 9 9 9 9 9 9 9 9 9 9 9 9 9 9 9 9 9 9 9 9 9 9 8 8 8 8 8 8 8 8 9 9 9
10 10 10 10 9 9 9 9 9 9 9 9 9 8 8 8 8 8 8 8 8 8 8 8 8 8 8 8 8 8 8 8 8 8 8 7 7 7 8 8 8 8 8
10 10 9 9 9 9 9 9 9 9 9 9 8 8 8 8 8 8 8 8 8 8 8 8 8 8 8 8 8 8 8 8 8 7 8 8 7 7 7 7 7 7 7
10 9 9 8 8 8 8 8 8 8 8 8 8 8 7 7 7 7 7 7 7 7 7 7 8 7 7 7 8 7 7 7 7 7 7 7 7 7 7 6 6 6 7
9 9 8 8 8 8 8 8 8 8 8 8 8 7 7 7 7 7 7 7 7 7 7 7 7 7 7 7 7 7 7 7 7 7 7 7 7 7 7 6 6 6 6
9 8 8 7 7 7 8 7 7 7 7 7 7 7 7 6 6 6 6 6 6 6 6 6 6 6 6 6 6 6 6 6 6 6 6 6 6 6 6 6 6 5 5
8 7 7 7 7 7 7 7 7 7 7 7 7 7 6 6 6 6 6 6 6 6 6 6 6 6 6 6 6 6 6 6 6 6 6 6 6 6 6 6 6 5 5
7 7 6 6 6 6 6 7 7 6 6 7 7 6 6 6 6 6 5 5 5 5 5 5 5 5 5 5 5 5 5 6 5 5 5 5 5 5 5 5 5 5 4
6 6 6 6 6 6 6 6 6 6 6 6 6 6 6 6 5 5 5 5 5 5 5 5 5 5 5 5 5 5 5 5 5 5 5 5 5 5 5 5 5 4 4
6 5 5 5 5 5 6 6 6 6 6 6 6 5 5 5 5 5 5 5 5 5 5 4 4 4 4 4 4 4 4 4 5 5 4 5 4 5 4 4 4 4 4
6 5 5 5 5 5 5 5 5 5 5 5 5 5 5 5 5 5 4 4 4 4 4 4 4 4 4 4 4 4 4 4 4 4 4 4 4 4 4 4 4 4 3
5 5 4 4 4 4 4 4 4 4 5 5 5 5 4 4 4 4 4 4 4 4 4 4 4 4 3 3 3 4 4 3 3 3 4 4 4 3 3 3 3 3 3
5 4 4 4 4 4 4 4 4 4 4 4 4 4 4 4 4 4 4 4 3 3 3 3 3 3 3 3 3 3 3 3 3 3 3 3 3 3 3 3 3 3 2
4 4 3 3 3 3 3 3 3 4 4 4 4 4 3 3 3 3 3 3 3 3 3 3 3 3 3 3 2 3 2 3 3 2 2 2 2 2 2 2 2 2 2
4 4 3 3 3 3 3 3 3 3 3 3 3 3 3 3 3 3 3 3 2 2 2 2 2 2 2 2 2 2 2 2 2 2 2 2 2 2 2 1 1 1 1
3 3 3 3 3 3 3 3 3 3 2 2 2 2 2 2 2 2 2 2 2 2 2 2 2 2 2 1 1 1 1 1 2 2 1 1 1 1 1 1 1 1 0
3 3 3 3 3 3 2 2 2 2 2 2 2 2 2 2 1 1 1 1 1 1 1 1 1 1 1 1 1 1 1 1 1 1 1 1 0 0 0 0 0 0 -0
3 3 3 3 2 2 2 2 2 2 1 1 1 1 1 1 1 1 1 1 1 0 0 0 0 0 0 0 0 0 0 0 0 0 0 -0 -0 -0 -0 -0 -0 -1 -1
2 2 2 2 2 2 2 2 1 1 1 1 1 1 1 1 1 1 1 0 0 -0 -0 -0 -0 -0 -0 -0 -0 -0 -0 -0 -0 -1 -1 -1 -1 -1 -1 -1 -1 -1 -1
2 2 2 2 1 1 1 1 1 1 0 0 0 0 0 0 0 0 0 -0 -0 -1 -1 -1 -1 -1 -1 -1 -1 -1 -1 -1 -1 -1 -1 -1 -2 -2 -2 -2 -2 -2 -2
1 1 1 1 1 0 0 0 0 0 -0 -0 -0 -0 -0 -0 -0 -0 -1 -1 -1 -1 -1 -1 -1 -1 -1 -1 -2 -2 -2 -2 -2 -2 -2 -2 -2 -2 -2 -2 -2 -2 -3
0 0 0 0 -0 -0 -0 -0 -0 -1 -1 -1 -1 -1 -1 -1 -1 -1 -1 -1 -1 -2 -2 -2 -2 -2 -2 -2 -2 -2 -2 -2 -2 -2 -3 -3 -3 -3 -3 -3 -3 -3 -3
-0 -1 -0 -0 -0 -1 -1 -1 -1 -1 -1 -1 -1 -1 -1 -1 -1 -1 -1 -2 -2 -2 -2 -2 -2 -2 -2 -2 -2 -3 -3 -3 -3 -3 -3 -3 -3 -3 -3 -3 -3 -3 -4
-1 -1 -1 -1 -1 -1 -1 -1 -1 -1 -1 -1 -1 -2 -2 -2 -2 -2 -2 -2 -2 -2 -2 -2 -3 -3 -3 -3 -3 -3 -3 -3 -3 -3 -4 -4 -4 -4 -4 -4 -4 -4 -4
-1 -1 -1 -1 -1 -1 -1 -2 -2 -2 -2 -2 -2 -2 -2 -2 -2 -2 -3 -3 -3 -3 -3 -3 -3 -3 -3 -3 -3 -3 -4 -4 -4 -4 -4 -4 -4 -4 -4 -4 -4 -4 -4
Wind_Speed
5 5 5 4 3 3 3 3 3 3 3 2 2 2 1 1 1 1 1 1 1 1 2 1 1 1 1 1 1 1 1 1 1 1 1 1 0 1 1 1 1 2 2
4 5 5 4 4 3 3 3 3 3 3 2 2 2 2 1 1 1 1 1 2 2 2 2 1 1 1 1 1 1 1 0 1 1 2 0 1 1 1 1 1 1 2
6 5 5 4 4 3 3 2 3 3 3 3 2 2 1 1 1 1 1 0 1 2 2 3 2 1 2 2 2 2 2 2 1 1 2 2 2 1 1 2 1 1 0
4 5 5 4 3 3 3 2 2 3 3 4 4 4 3 2 3 2 2 1 1 1 2 2 3 2 1 2 2 1 1 2 2 1 1 1 2 1 1 1 1 1 1
4 5 4 4 3 3 3 2 2 2 3 4 5 4 4 3 2 2 2 2 1 1 1 2 2 2 2 2 2 1 1 2 2 2 1 1 1 1 2 2 2 1 1
4 4 3 3 3 2 2 2 3 3 3 4 4 5 5 3 3 2 3 3 2 2 2 2 2 2 2 3 2 2 2 1 2 2 1 1 1 2 2 2 2 2 2
4 3 3 3 3 3 3 3 3 3 3 4 4 4 4 4 4 4 4 3 2 2 3 2 2 2 2 2 2 2 2 2 2 2 2 2 2 2 1 1 2 2 2
3 2 2 3 3 3 3 4 3 3 2 3 3 3 4 3 3 3 3 3 3 2 2 2 2 2 2 2 2 2 2 2 2 2 2 2 2 2 2 2 2 2 2
2 2 2 2 2 2 2 3 3 3 3 2 2 2 3 3 3 3 3 3 3 2 3 2 2 2 2 1 2 1 2 2 2 2 2 2 2 2 2 1 2 3 3
1 1 1 1 1 2 1 2 2 3 3 3 3 2 2 3 3 3 3 3 3 3 3 2 2 2 2 2 2 2 2 2 2 2 2 2 2 1 1 2 2 2 2
1 1 1 1 1 1 1 1 2 2 2 2 2 2 2 3 3 3 3 3 3 3 3 3 3 2 2 2 2 2 2 2 2 2 2 3 2 2 2 2 2 2 1
1 1 1 2 2 1 1 1 1 2 2 2 2 2 2 2 3 3 3 3 3 3 3 3 3 3 2 2 3 3 2 2 3 3 3 3 2 3 2 2 3 2 2
0 1 1 1 1 1 1 1 1 1 2 2 2 2 2 2 2 3 3 3 3 3 3 3 3 3 3 3 3 3 3 3 3 3 3 3 2 3 2 3 3 2 2
0 0 1 1 1 1 1 1 1 1 1 2 2 2 2 2 2 2 2 2 3 3 3 3 3 3 3 3 3 3 3 3 3 3 3 3 3 3 3 3 3 2 2
1 1 1 1 1 1 1 1 1 1 2 2 2 2 2 2 2 2 2 2 2 2 2 2 2 2 2 3 3 3 3 3 3 3 3 3 4 4 4 3 3 2 2
2 2 2 2 2 2 1 1 1 2 2 2 2 2 2 2 2 2 2 2 2 2 2 2 2 2 2 4 5 3 3 3 3 3 3 3 3 4 4 4 5 4 4
4 3 3 3 2 2 2 2 1 1 1 1 2 2 3 2 2 2 2 2 2 2 2 2 3 3 3 5 5 5 2 3 3 3 3 2 3 3 2 3 4 4 6
4 4 3 3 2 1 1 0 1 1 1 1 1 2 2 2 2 2 2 2 2 2 3 2 2 2 3 4 4 4 2 2 2 2 3 3 3 3 3 2 1 2 3
4 3 3 2 1 1 0 0 0 1 1 1 1 2 2 2 2 3 3 2 2 2 2 2 2 2 2 3 4 3 1 1 2 2 2 2 3 4 4 2 1 1 2
3 3 2 2 1 1 1 0 0 1 1 2 2 2 2 3 3 3 2 1 1 2 2 2 1 2 2 3 4 3 1 2 2 1 2 3 3 4 3 2 2 2 2
3 3 2 2 1 1 1 0 0 1 2 1 1 1 2 2 2 2 1 2 2 2 2 2 1 2 2 3 4 4 2 3 2 2 1 2 3 4 4 3 2 3 2
4 3 2 3 2 1 0 1 1 2 2 1 1 1 2 2 2 2 2 2 2 2 2 1 1 1 2 2 4 4 3 2 2 2 2 2 3 3 3 3 3 3 2
3 2 2 2 2 1 0 1 2 1 2 1 1 1 1 1 2 2 3 2 2 2 2 2 2 2 1 2 4 4 4 4 2 2 2 2 2 2 2 3 3 2 1
3 2 2 2 3 3 2 2 2 1 1 2 2 2 2 2 2 2 2 2 2 3 3 3 3 2 2 2 2 2 2 3 2 1 1 2 2 1 2 2 1 1 1
3 2 2 3 4 3 3 2 2 1 2 2 2 2 2 2 2 1 2 2 3 4 4 3 3 3 3 4 5 3 2 2 2 1 1 1 0 1 1 1 1 1 1
3 3 3 3 4 3 3 3 2 1 2 3 2 2 2 2 2 2 1 2 3 4 5 5 4 4 5 5 6 6 6 5 4 2 2 2 2 2 2 2 1 1 2
Wind_Direction
171 145 137 137 140 134 130 142 137 145 139 145 158 159 166 161 146 109 109 125 101 98 105 109 119 114 124 120 103 110 129 137 126 110 83 4 101 133 150 121 127 131 143
164 152 150 153 157 156 146 145 154 155 153 160 170 172 169 170 170 109 107 143 144 142 145 138 150 132 140 130 128 129 148 196 159 146 149 190 304 293 232 201 191 185 140
173 163 163 162 159 163 164 162 169 159 160 159 145 137 125 146 161 195 206 172 146 147 156 161 151 156 163 166 167 167 164 192 218 178 160 166 207 238 257 227 213 196 154
166 165 163 165 168 167 156 163 167 168 171 166 162 163 181 193 203 196 197 189 160 138 158 165 156 155 162 177 188 175 180 177 197 238 286 211 172 174 232 275 253 226 212
170 166 162 165 162 151 156 174 171 178 178 180 178 181 197 198 180 175 179 190 176 147 153 165 160 162 174 181 183 177 172 183 192 200 236 252 286 206 192 228 249 289 278
133 132 135 140 142 139 152 174 177 188 185 183 182 186 193 191 182 192 198 195 189 181 170 169 163 171 173 180 185 181 180 190 193 201 198 191 203 222 210 221 232 247 262
119 126 129 142 154 163 176 180 180 188 185 182 182 183 185 191 195 199 202 193 187 190 197 189 189 185 183 179 171 177 194 192 187 209 218 214 232 234 232 211 234 255 263
112 134 151 160 167 176 184 178 179 184 182 177 183 187 187 193 207 199 192 197 199 195 183 186 196 202 193 189 163 167 197 199 201 222 219 215 228 233 225 215 208 248 260
119 123 133 140 151 167 187 177 174 180 183 179 175 181 188 190 192 189 186 196 192 181 176 187 192 188 188 179 165 190 215 205 213 221 226 229 231 236 237 224 202 196 233
119 121 134 136 146 150 157 153 164 175 178 172 179 186 193 191 182 183 185 188 188 174 176 190 194 192 190 185 179 196 217 217 225 218 219 233 237 238 242 231 239 219 214
151 159 167 157 135 126 132 155 161 163 177 176 171 176 193 193 185 184 190 186 180 173 181 188 190 198 205 194 187 202 206 221 234 226 216 227 227 234 245 244 243 245 221
165 153 154 147 140 142 167 207 186 183 194 184 178 189 191 185 183 189 191 179 179 180 183 185 190 200 206 203 205 206 206 214 226 221 213 223 226 228 232 238 242 244 237
88 102 130 154 164 172 190 212 210 204 194 177 179 184 182 185 188 190 183 178 178 179 179 182 194 204 209 212 210 211 212 219 225 222 217 222 211 228 236 231 239 241 246
239 264 235 200 187 198 200 203 210 188 183 173 179 189 191 194 195 188 183 184 180 180 187 193 200 205 209 211 209 209 217 225 227 222 217 220 220 224 224 227 229 233 233
316 282 249 249 238 228 225 205 209 189 187 177 184 196 186 182 184 189 186 183 187 193 190 199 208 207 216 219 209 211 219 214 216 221 216 221 225 230 230 233 222 217 227
290 276 259 252 244 238 239 231 211 204 187 183 193 188 177 177 182 188 191 187 195 194 193 202 205 211 235 237 236 224 209 207 208 219 225 230 222 234 246 256 247 233 230
317 302 281 266 257 252 243 227 219 208 187 186 183 176 178 182 188 192 192 200 205 198 208 213 212 222 234 234 232 229 213 210 213 212 214 236 233 232 234 255 262 252 252
317 303 296 294 290 280 283 224 146 171 187 185 189 184 173 175 181 189 200 207 207 198 200 204 204 209 227 224 225 228 211 205 216 217 211 211 216 227 227 224 248 251 256
297 291 288 285 295 311 352 80 137 163 180 204 217 215 190 180 184 201 206 201 189 201 195 185 189 199 231 230 232 228 180 188 222 226 210 206 209 232 236 213 209 247 289
319 313 314 329 343 338 34 104 174 182 217 226 231 222 202 192 200 207 207 192 187 203 188 182 194 206 226 234 233 225 193 194 210 223 222 227 230 243 235 202 196 219 253
338 343 351 347 331 8 53 46 280 270 266 240 235 221 206 204 204 197 197 183 191 186 184 191 218 221 227 232 234 226 213 201 201 212 225 233 242 245 250 247 227 236 251
341 350 349 334 338 18 64 299 287 299 319 286 234 233 220 215 196 182 197 190 185 185 195 201 237 244 230 235 243 233 233 228 202 210 214 226 244 256 269 258 240 248 261
324 328 322 324 329 333 293 267 288 316 319 282 251 245 234 226 199 191 198 195 189 191 203 205 227 242 232 227 232 235 237 244 241 215 218 240 260 279 288 265 255 263 235
319 322 323 319 312 312 302 272 284 295 293 266 259 250 233 228 217 204 195 194 194 201 210 216 225 236 234 230 221 219 230 236 250 259 240 244 272 308 296 288 291 281 244
304 306 294 292 293 301 302 303 295 276 279 271 260 248 237 227 218 208 212 211 210 207 213 220 217 220 235 235 228 221 219 212 215 194 172 177 197 257 277 288 285 273 264
297 300 298 295 295 301 301 302 301 270 264 267 258 247 233 223 208 203 241 250 236 230 225 222 223 232 233 238 232 228 229 228 212 189 186 209 217 230 236 240 262 268 260
Height
1479 1480 1481 1483 1484 1485 1486 1487 1488 1490 1491 1492 1493 1494 1495 1497 1498 1499 1500 1501 1502 1503 1504 1504 1505 1506 1507 1508 1510 1511 1513 1514 1516 1517 1518 1519 1520 1521 1522 1523 1523 1524 1525
1476 1477 1479 1480 1481 1482 1483 1484 1485 1487 1488 1489 1490 1492 1493 1494 1495 1496 1497 1498 1499 1500 1501 1502 1503 1504 1505 1506 1507 1509 1510 1511 1513 1514 1515 1517 1519 1518 1519 1520 1521 1521 1522
1473 1474 1476 1477 1479 1480 1481 1482 1483 1484 1486 1487 1488 1489 1491 1492 1492 1493 1494 1495 1496 1497 1498 1499 1500 1501 1502 1503 1504 1506 1507 1508 1510 1512 1513 1514 1514 1515 1516 1517 1518 1518 1518
1470 1471 1473 1474 1476 1477 1478 1479 1480 1481 1482 1484 1485 1486 1487 1487 1488 1490 1491 1492 1493 1494 1495 1496 1497 1498 1499 1500 1502 1503 1505 1506 1507 1509 1510 1511 1512 1513 1513 1514 1515 1516 1516
1468 1469 1470 1472 1473 1474 1475 1476 1477 1478 1479 1480 1481 1483 1484 1485 1486 1487 1488 1489 1490 1491 1492 1493 1494 1495 1496 1498 1499 1500 1502 1503 1504 1505 1506 1508 1509 1510 1510 1510 1511 1512 1512
1465 1466 1468 1469 1470 1471 1472 1473 1474 1475 1476 1477 1478 1479 1481 1483 1483 1484 1485 1486 1487 1488 1489 1490 1491 1492 1494 1495 1496 1497 1499 1500 1501 1502 1503 1504 1505 1506 1507 1507 1507 1508 1509
1463 1464 1465 1467 1468 1469 1470 1470 1471 1472 1473 1474 1475 1476 1478 1479 1480 1481 1482 1483 1483 1484 1485 1486 1488 1489 1491 1492 1493 1494 1496 1497 1497 1498 1500 1501 1502 1503 1504 1504 1504 1504 1505
1462 1463 1464 1465 1465 1466 1467 1468 1469 1469 1470 1471 1472 1473 1474 1476 1477 1478 1479 1480 1481 1482 1482 1483 1485 1486 1487 1488 1490 1491 1492 1493 1494 1495 1496 1497 1498 1500 1500 1501 1501 1501 1501
1461 1461 1462 1463 1463 1464 1465 1466 1466 1467 1468 1469 1469 1470 1471 1472 1474 1475 1476 1477 1478 1479 1480 1481 1481 1482 1483 1485 1486 1487 1488 1489 1490 1491 1492 1493 1494 1495 1496 1497 1498 1499 1497
1460 1460 1460 1461 1461 1462 1463 1463 1464 1465 1465 1466 1467 1467 1468 1469 1470 1471 1472 1473 1475 1476 1477 1478 1478 1479 1480 1481 1482 1483 1485 1486 1486 1487 1488 1489 1490 1491 1492 1493 1494 1494 1494
1459 1459 1459 1459 1459 1460 1460 1461 1461 1462 1462 1463 1464 1464 1465 1466 1467 1468 1469 1470 1471 1472 1473 1474 1475 1476 1477 1478 1478 1479 1481 1481 1482 1483 1484 1485 1486 1487 1488 1488 1489 1490 1490
1457 1457 1457 1457 1457 1457 1458 1459 1459 1459 1460 1460 1461 1462 1462 1463 1464 1465 1466 1467 1468 1469 1470 1471 1472 1472 1473 1474 1475 1476 1477 1478 1478 1479 1480 1480 1481 1482 1483 1484 1484 1485 1486
1456 1456 1456 1455 1455 1455 1456 1456 1457 1457 1457 1458 1458 1459 1459 1460 1461 1462 1462 1463 1464 1466 1467 1467 1468 1469 1469 1470 1471 1472 1473 1474 1474 1475 1476 1476 1477 1478 1478 1479 1480 1480 1481
1455 1454 1454 1453 1453 1453 1453 1454 1454 1454 1455 1455 1455 1456 1456 1457 1458 1458 1459 1460 1461 1462 1463 1464 1464 1465 1466 1466 1467 1468 1469 1469 1470 1471 1472 1472 1473 1473 1474 1475 1475 1476 1476
1453 1453 1452 1452 1451 1451 1451 1451 1451 1451 1452 1452 1452 1453 1453 1454 1454 1455 1456 1456 1457 1458 1459 1460 1460 1461 1462 1463 1463 1464 1465 1465 1466 1467 1467 1468 1469 1469 1470 1471 1471 1471 1472
1451 1450 1450 1449 1448 1448 1448 1448 1448 1448 1448 1448 1449 1449 1450 1450 1451 1451 1452 1453 1454 1454 1455 1456 1456 1457 1458 1459 1459 1460 1460 1461 1462 1462 1463 1464 1464 1465 1466 1466 1466 1467 1467
1449 1448 1447 1446 1446 1445 1445 1445 1445 1445 1445 1445 1445 1446 1447 1447 1448 1448 1448 1449 1450 1451 1451 1452 1453 1453 1454 1455 1456 1456 1457 1457 1458 1458 1458 1459 1459 1460 1461 1461 1462 1462 1463
1447 1446 1445 1444 1443 1443 1443 1443 1442 1442 1442 1442 1443 1443 1444 1444 1445 1445 1445 1446 1446 1447 1448 1448 1449 1450 1450 1451 1452 1452 1452 1453 1453 1454 1454 1455 1455 1456 1457 1457 1457 1457 1458
1444 1443 1442 1441 1440 1440 1440 1440 1439 1439 1439 1439 1440 1440 1441 1441 1441 1442 1442 1442 1443 1444 1444 1445 1445 1446 1446 1447 1448 1449 1448 1449 1449 1450 1450 1451 1451 1452 1452 1453 1453 1453 1453
1441 1440 1439 1438 1437 1437 1437 1436 1436 1436 1436 1437 1437 1437 1438 1438 1438 1439 1439 1439 1440 1440 1441 1441 1442 1443 1443 1444 1444 1445 1445 1445 1445 1446 1447 1447 1448 1448 1449 1449 1449 1448 1449
1438 1437 1436 1435 1435 1434 1434 1433 1433 1433 1434 1434 1434 1434 1435 1435 1435 1435 1436 1436 1437 1437 1438 1438 1439 1440 1440 1441 1441 1442 1441 1441 1442 1442 1443 1444 1444 1445 1445 1445 1445 1445 1446
1436 1435 1433 1433 1432 1432 1431 1431 1430 1431 1431 1431 1431 1431 1432 1432 1432 1432 1433 1433 1434 1434 1434 1435 1436 1436 1437 1438 1438 1438 1439 1439 1439 1439 1440 1440 1441 1441 1441 1442 1442 1442 1442
1434 1433 1431 1430 1430 1429 1429 1428 1428 1428 1428 1428 1428 1428 1428 1429 1429 1429 1430 1430 1431 1431 1431 1432 1432 1433 1434 1434 1435 1435 1436 1436 1436 1436 1437 1437 1438 1438 1438 1439 1439 1438 1438
1432 1431 1429 1428 1427 1427 1426 1426 1425 1425 1425 1424 1424 1425 1425 1425 1425 1426 1426 1427 1427 1427 1428 1429 1429 1429 1430 1430 1431 1432 1432 1433 1433 1434 1434 1434 1435 1435 1435 1435 1435 1435 1435
1429 1428 1427 1426 1425 1424 1423 1423 1422 1422 1421 1421 1421 1421 1421 1422 1422 1422 1423 1423 1424 1425 1425 1425 1426 1426 1426 1427 1428 1428 1429 1429 1430 1430 1430 1431 1431 1431 1432 1432 1432 1432 1432
1426 1425 1424 1423 1422 1421 1420 1420 1420 1419 1418 1418 1418 1418 1418 1418 1418 1419 1419 1420 1421 1421 1422 1422 1423 1423 1424 1424 1424 1425 1426 1426 1427 1427 1427 1427 1427 1428 1428 1428 1428 1429 1429